Find Starlink 36988

NORAD ID: 67998 Int'l Des: 2026-039 Owner: SPXS Country: US Constellation: starlink operational
LEOCIRCULAR

現在のビュー

3D地球を読み込み中...

Starlink 36988について

説明を読み込み中...

次回通過

Passes for default location (London). Set your location on the main map for personalized predictions.

高度履歴

Loading altitude history...

軌道要素

1 67998U 26039N 26150.85958896 .00021478 00000-0 78728-3 0 9998
2 67998 43.0025 304.5861 0002136 261.2307 98.8303 15.27598230 14272
Epoch: May 30, 2026 • Age: 27 hours

現在のステータス

高度 486.4 km
速度 7.63 km/s
衛星直下点 38.55°N, 113.04°E
打ち上げ日 Feb 27, 2026
運用期間 0.2 years
タイプ internet

技術仕様

分類 Payload
質量 575.00 kg
乾燥質量 530.00 kg
総質量 575.00 kg
長さ 0.30 m
直径 4.10 m
スパン 29.00 m
形状 Box + pan
製造者 SPXS
バスタイプ Starlink V2MO
フェーズステータス In Orbit
所有者/国 SPXS/US

Most Searched